Location: Complexul Astronomic Baia Mare
(47.6577°N, 23.5639°E)
Time: 05:51:59
(UTC+03:00)

ISS - Pass Details

Date: 07 March 2017
Orbit: 399 x 409 km, 51.6° (Epoch: 30 March)

Event Time Altitude Azimuth Distance (km) Brightness Sun altitude
Exits shadow 04:56:22 36° 156° (SSE) 671 -2.7 -20.6°
Maximum altitude 04:56:36 36° 145° (SE) 664 -2.7 -20.6°
Drops below altitude 10° 04:59:41 10° 77° (ENE) 1,481 0.2 -20.1°
Sets 05:01:52 0° 69° (ENE) 2,346 1.6 -19.7°
